UAE251 OMDB-VAAH

Flight info

Callsign UAE251
Flight time 2h 21m
Altitude 41000
Route IVURO DCT LALDO B505 NADSO B524 ALPOR DCT TELEM DCT VASLA VASLA1A
Aircraft A359/H-SDE2E3GHIJ3J4J5LM1ORWXY/LB1D1

Departure

Time 2026-04-26 08:38
Airport Dubai International Airport (OMDB)

Arrival

Time 2026-04-26 10:59
Airport Sardar Vallabh Patel International Airport (VAAH)
Time Latitude Longitude Altitude Speed Heading
2026-04-26 07:58 25.24929 55.36220 28 ft 0 kts 211°
2026-04-26 08:19 25.24936 55.36225 28 ft 4 kts 211°
2026-04-26 08:19 25.24959 55.36241 27 ft 4 kts 208°
2026-04-26 08:20 25.24983 55.36254 25 ft 4 kts 216°
2026-04-26 08:20 25.24995 55.36268 25 ft 4 kts 249°
2026-04-26 08:20 25.25000 55.36289 25 ft 4 kts 287°
2026-04-26 08:20 25.24988 55.36313 26 ft 4 kts 303°
2026-04-26 08:21 25.24984 55.36322 26 ft 4 kts 300°
2026-04-26 08:24 25.24984 55.36321 28 ft 0 kts 300°
2026-04-26 08:25 25.24995 55.36300 27 ft 6 kts 301°
2026-04-26 08:25 25.25021 55.36253 28 ft 8 kts 301°
2026-04-26 08:25 25.25056 55.36190 28 ft 11 kts 301°
2026-04-26 08:26 25.25099 55.36113 28 ft 13 kts 301°
2026-04-26 08:26 25.25150 55.36022 28 ft 15 kts 302°
2026-04-26 08:26 25.25208 55.35918 28 ft 17 kts 301°
2026-04-26 08:26 25.25273 55.35803 27 ft 18 kts 301°
2026-04-26 08:27 25.25343 55.35679 27 ft 20 kts 302°
2026-04-26 08:27 25.25419 55.35546 27 ft 21 kts 302°
2026-04-26 08:27 25.25499 55.35401 27 ft 23 kts 301°
2026-04-26 08:27 25.25566 55.35282 27 ft 15 kts 302°
2026-04-26 08:28 25.25622 55.35182 27 ft 15 kts 302°
2026-04-26 08:28 25.25664 55.35148 27 ft 6 kts 359°
2026-04-26 08:28 25.25715 55.35172 27 ft 10 kts 31°
2026-04-26 08:28 25.25781 55.35216 27 ft 12 kts 31°
2026-04-26 08:29 25.25848 55.35261 28 ft 4 kts 31°
2026-04-26 08:29 25.25849 55.35261 28 ft 0 kts 31°
2026-04-26 08:29 25.25869 55.35275 28 ft 8 kts 31°
2026-04-26 08:30 25.25928 55.35314 28 ft 11 kts 31°
2026-04-26 08:30 25.25973 55.35346 28 ft 12 kts 37°
2026-04-26 08:30 25.26014 55.35432 29 ft 14 kts 78°
2026-04-26 08:30 25.26011 55.35517 29 ft 8 kts 121°
2026-04-26 08:31 25.25964 55.35602 29 ft 12 kts 121°
2026-04-26 08:31 25.25933 55.35657 29 ft 13 kts 122°
2026-04-26 08:31 25.25859 55.35790 29 ft 17 kts 122°
2026-04-26 08:31 25.25816 55.35866 30 ft 18 kts 122°
2026-04-26 08:32 25.25745 55.35992 30 ft 20 kts 122°
2026-04-26 08:32 25.25666 55.36132 30 ft 23 kts 122°
2026-04-26 08:32 25.25580 55.36286 30 ft 25 kts 122°
2026-04-26 08:32 25.25486 55.36452 30 ft 26 kts 122°
2026-04-26 08:33 25.25386 55.36629 30 ft 28 kts 121°
2026-04-26 08:33 25.25281 55.36818 30 ft 30 kts 121°
2026-04-26 08:33 25.25170 55.37017 31 ft 31 kts 122°
2026-04-26 08:33 25.25060 55.37212 31 ft 30 kts 122°
2026-04-26 08:34 25.24947 55.37413 32 ft 26 kts 122°
2026-04-26 08:34 25.24862 55.37562 31 ft 24 kts 122°
2026-04-26 08:34 25.24771 55.37725 31 ft 25 kts 122°
2026-04-26 08:34 25.24692 55.37864 31 ft 4 kts 122°
2026-04-26 08:35 25.24682 55.37882 31 ft 4 kts 122°
2026-04-26 08:35 25.24666 55.37918 31 ft 5 kts 102°
2026-04-26 08:35 25.24682 55.37955 31 ft 6 kts 50°
2026-04-26 08:35 25.24715 55.37982 33 ft 6 kts 33°
2026-04-26 08:36 25.24744 55.38003 34 ft 4 kts 32°
2026-04-26 08:36 25.24766 55.38018 36 ft 3 kts 32°
2026-04-26 08:36 25.24794 55.38027 36 ft 6 kts
2026-04-26 08:36 25.24822 55.38001 36 ft 6 kts 302°
2026-04-26 08:37 25.24827 55.37991 36 ft 0 kts 301°
2026-04-26 08:37 25.24865 55.37924 36 ft 41 kts 302°
2026-04-26 08:37 25.25145 55.37420 38 ft 111 kts 301°
2026-04-26 08:38 25.25653 55.36488 87 ft 166 kts 302°
2026-04-26 08:38 25.26269 55.35346 688 ft 173 kts 302°
2026-04-26 08:38 25.26883 55.34258 1713 ft 163 kts 304°
2026-04-26 08:38 25.27483 55.33200 2568 ft 165 kts 304°
2026-04-26 08:39 25.28098 55.32103 3402 ft 168 kts 304°
2026-04-26 08:39 25.28705 55.31012 4234 ft 169 kts 303°
2026-04-26 08:39 25.29439 55.29990 4969 ft 172 kts 319°
2026-04-26 08:39 25.30537 55.29474 5662 ft 175 kts 351°
2026-04-26 08:40 25.31770 55.29444 6324 ft 179 kts 359°
2026-04-26 08:40 25.33028 55.29502 6882 ft 182 kts 359°
2026-04-26 08:40 25.34312 55.29557 7514 ft 187 kts 359°
2026-04-26 08:40 25.35612 55.29605 8158 ft 188 kts 360°
2026-04-26 08:41 25.36927 55.29650 8737 ft 190 kts 358°
2026-04-26 08:41 25.38255 55.29683 9279 ft 192 kts 358°
2026-04-26 08:41 25.39574 55.29887 9761 ft 199 kts 15°
2026-04-26 08:41 25.40695 55.30810 10225 ft 204 kts 46°
2026-04-26 08:42 25.41599 55.32036 10674 ft 207 kts 50°
2026-04-26 08:42 25.42488 55.33299 11120 ft 209 kts 50°
2026-04-26 08:42 25.43398 55.34575 11562 ft 211 kts 50°
2026-04-26 08:42 25.44316 55.35849 11999 ft 213 kts 50°
2026-04-26 08:43 25.45250 55.37135 12420 ft 215 kts 50°
2026-04-26 08:43 25.46194 55.38429 12838 ft 217 kts 50°
2026-04-26 08:43 25.47148 55.39735 13252 ft 219 kts 50°
2026-04-26 08:43 25.48109 55.41051 13662 ft 221 kts 51°
2026-04-26 08:44 25.49073 55.42387 14023 ft 223 kts 52°
2026-04-26 08:44 25.50022 55.43752 14364 ft 224 kts 52°
2026-04-26 08:44 25.50974 55.45127 14706 ft 226 kts 52°
2026-04-26 08:44 25.51933 55.46509 15028 ft 229 kts 51°
2026-04-26 08:45 25.52889 55.47979 15172 ft 242 kts 58°
2026-04-26 08:45 25.53345 55.49827 15290 ft 262 kts 92°
2026-04-26 08:45 25.52791 55.51800 15473 ft 279 kts 123°
2026-04-26 08:45 25.51712 55.53661 15744 ft 299 kts 127°
2026-04-26 08:46 25.50515 55.55639 16019 ft 321 kts 126°
2026-04-26 08:46 25.49253 55.57776 16317 ft 341 kts 125°
2026-04-26 08:46 25.47939 55.60042 16617 ft 360 kts 124°
2026-04-26 08:46 25.46563 55.62438 16923 ft 377 kts 124°
2026-04-26 08:47 25.45132 55.64938 17199 ft 392 kts 124°
2026-04-26 08:47 25.43652 55.67537 17573 ft 404 kts 124°
2026-04-26 08:47 25.42436 55.70327 18095 ft 413 kts 109°
2026-04-26 08:47 25.41699 55.73419 18588 ft 419 kts 104°
2026-04-26 08:48 25.41050 55.76580 19108 ft 424 kts 104°
2026-04-26 08:48 25.40392 55.79778 19661 ft 428 kts 104°
2026-04-26 08:48 25.39715 55.83002 20205 ft 432 kts 104°
2026-04-26 08:48 25.39026 55.86258 20776 ft 437 kts 105°
2026-04-26 08:49 25.38327 55.89540 21331 ft 441 kts 105°
2026-04-26 08:49 25.37618 55.92858 21882 ft 445 kts 105°
2026-04-26 08:49 25.36902 55.96215 22452 ft 450 kts 105°
2026-04-26 08:49 25.36179 55.99598 23025 ft 454 kts 105°
2026-04-26 08:50 25.35447 56.03002 23570 ft 458 kts 105°
2026-04-26 08:50 25.34705 56.06451 24053 ft 462 kts 105°
2026-04-26 08:50 25.33957 56.09932 24546 ft 466 kts 105°
2026-04-26 08:50 25.33208 56.13433 25057 ft 470 kts 105°
2026-04-26 08:51 25.32352 56.20626 26051 ft 480 kts 96°
2026-04-26 08:51 25.32126 56.24375 26551 ft 484 kts 94°
2026-04-26 08:51 25.31947 56.28058 27047 ft 488 kts 94°
2026-04-26 08:52 25.31770 56.31825 27491 ft 493 kts 94°
2026-04-26 08:52 25.31583 56.35626 27939 ft 496 kts 94°
2026-04-26 08:52 25.31379 56.39451 28443 ft 500 kts 95°
2026-04-26 08:52 25.31163 56.43303 28913 ft 503 kts 95°
2026-04-26 08:53 25.30938 56.47177 29361 ft 507 kts 95°
2026-04-26 08:53 25.30706 56.51086 29794 ft 511 kts 95°
2026-04-26 08:53 25.30469 56.55027 30177 ft 515 kts 95°
2026-04-26 08:53 25.30019 56.58971 30471 ft 518 kts 103°
2026-04-26 08:54 25.29045 56.62757 30789 ft 521 kts 111°
2026-04-26 08:54 25.27763 56.66525 31081 ft 525 kts 113°
2026-04-26 08:54 25.26382 56.70276 31381 ft 529 kts 114°
2026-04-26 08:54 25.24940 56.74046 31666 ft 533 kts 114°
2026-04-26 08:55 25.23480 56.77818 31960 ft 537 kts 114°
2026-04-26 08:55 25.22006 56.81623 32230 ft 541 kts 113°
2026-04-26 08:55 25.20528 56.85461 32502 ft 545 kts 113°
2026-04-26 08:55 25.19046 56.89329 32764 ft 549 kts 112°
2026-04-26 08:56 25.17560 56.93221 33029 ft 552 kts 112°
2026-04-26 08:56 25.16066 56.97142 33298 ft 555 kts 112°
2026-04-26 08:56 25.14584 57.01032 33545 ft 558 kts 111°
2026-04-26 08:56 25.13056 57.05041 33816 ft 561 kts 111°
2026-04-26 08:57 25.11540 57.09010 34152 ft 561 kts 111°
2026-04-26 08:57 25.10029 57.12962 34556 ft 559 kts 111°
2026-04-26 08:57 25.08538 57.16857 34940 ft 557 kts 111°
2026-04-26 08:57 25.07010 57.20843 35311 ft 556 kts 111°
2026-04-26 08:58 25.05507 57.24763 35667 ft 555 kts 111°
2026-04-26 08:58 25.04021 57.28634 36018 ft 554 kts 111°
2026-04-26 08:58 25.02518 57.32546 36366 ft 553 kts 111°
2026-04-26 08:58 25.01013 57.36460 36720 ft 552 kts 111°
2026-04-26 08:59 24.99513 57.40358 37070 ft 552 kts 111°
2026-04-26 08:59 24.98013 57.44250 37409 ft 551 kts 111°
2026-04-26 08:59 24.96516 57.48133 37739 ft 550 kts 111°
2026-04-26 08:59 24.95021 57.52006 38055 ft 549 kts 111°
2026-04-26 09:00 24.93523 57.55884 38365 ft 549 kts 111°
2026-04-26 09:00 24.92033 57.59737 38654 ft 548 kts 111°
2026-04-26 09:00 24.90539 57.63597 38925 ft 546 kts 111°
2026-04-26 09:00 24.89048 57.67445 39178 ft 545 kts 111°
2026-04-26 09:01 24.87578 57.71236 39419 ft 544 kts 111°
2026-04-26 09:01 24.86092 57.75067 39666 ft 543 kts 111°
2026-04-26 09:01 24.84608 57.78889 39914 ft 542 kts 111°
2026-04-26 09:01 24.83318 57.82773 40133 ft 539 kts 103°
2026-04-26 09:02 24.82374 57.86758 40388 ft 537 kts 101°
2026-04-26 09:02 24.81513 57.90742 40610 ft 535 kts 100°
2026-04-26 09:02 24.80693 57.94740 40798 ft 535 kts 99°
2026-04-26 09:03 24.79094 58.02729 40832 ft 534 kts 99°
2026-04-26 09:03 24.77486 58.10718 40837 ft 534 kts 99°
2026-04-26 09:04 24.75885 58.18584 40832 ft 539 kts 99°
2026-04-26 09:04 24.74237 58.26610 40837 ft 538 kts 99°
2026-04-26 09:05 24.72572 58.34703 40831 ft 545 kts 99°
2026-04-26 09:05 24.70900 58.42809 40831 ft 547 kts 99°
2026-04-26 09:06 24.69210 58.50968 40830 ft 547 kts 100°
2026-04-26 09:06 24.67516 58.59126 40826 ft 547 kts 100°
2026-04-26 09:07 24.65819 58.67277 40827 ft 546 kts 100°
2026-04-26 09:07 24.64119 58.75419 40826 ft 546 kts 100°
2026-04-26 09:08 24.62426 58.83509 40826 ft 545 kts 100°
2026-04-26 09:08 24.60722 58.91627 40825 ft 545 kts 100°
2026-04-26 09:09 24.59012 58.99751 40828 ft 545 kts 100°
2026-04-26 09:09 24.57299 59.07863 40822 ft 544 kts 100°
2026-04-26 09:10 24.55586 59.15958 40825 ft 544 kts 100°
2026-04-26 09:10 24.53870 59.24049 40821 ft 543 kts 100°
2026-04-26 09:11 24.52151 59.32126 40823 ft 542 kts 100°
2026-04-26 09:11 24.50437 59.40136 40822 ft 542 kts 100°
2026-04-26 09:12 24.48711 59.48188 40821 ft 541 kts 100°
2026-04-26 09:12 24.46983 59.56231 40822 ft 541 kts 100°
2026-04-26 09:13 24.45252 59.64264 40822 ft 540 kts 100°
2026-04-26 09:13 24.43520 59.72285 40820 ft 540 kts 100°
2026-04-26 09:14 24.42078 59.78946 40821 ft 540 kts 100°
2026-04-26 09:14 24.40044 59.88318 40821 ft 540 kts 101°
2026-04-26 09:15 24.38593 59.94979 40818 ft 540 kts 101°
2026-04-26 09:15 24.36844 60.02996 40817 ft 540 kts 101°
2026-04-26 09:16 24.35092 60.11004 40817 ft 539 kts 101°
2026-04-26 09:16 24.33343 60.18998 40819 ft 539 kts 101°
2026-04-26 09:17 24.31582 60.27001 40814 ft 539 kts 101°
2026-04-26 09:17 24.29834 60.34928 40816 ft 538 kts 101°
2026-04-26 09:18 24.28070 60.42912 40820 ft 538 kts 101°
2026-04-26 09:18 24.26305 60.50877 40816 ft 538 kts 101°
2026-04-26 09:19 24.24537 60.58837 40817 ft 537 kts 101°
2026-04-26 09:19 24.22767 60.66786 40815 ft 537 kts 101°
2026-04-26 09:20 24.20995 60.74725 40815 ft 537 kts 101°
2026-04-26 09:20 24.19225 60.82663 40813 ft 536 kts 101°
2026-04-26 09:21 24.17449 60.90594 40817 ft 536 kts 101°
2026-04-26 09:21 24.15672 60.98510 40817 ft 535 kts 101°
2026-04-26 09:22 24.13891 61.06423 40816 ft 535 kts 101°
2026-04-26 09:22 24.12109 61.14324 40816 ft 534 kts 101°
2026-04-26 09:23 24.10323 61.22223 40814 ft 534 kts 101°
2026-04-26 09:23 24.08558 61.30112 40814 ft 532 kts 99°
2026-04-26 09:24 24.07955 61.38111 40813 ft 526 kts 86°
2026-04-26 09:24 24.08104 61.46068 40816 ft 526 kts 85°
2026-04-26 09:25 24.08369 61.54072 40814 ft 526 kts 85°
2026-04-26 09:25 24.08623 61.62077 40814 ft 526 kts 85°
2026-04-26 09:26 24.08850 61.70084 40817 ft 526 kts 85°
2026-04-26 09:26 24.09065 61.78094 40814 ft 526 kts 85°
2026-04-26 09:27 24.09196 61.83107 40815 ft 526 kts 85°
2026-04-26 09:27 24.09398 61.90914 40809 ft 527 kts 85°
2026-04-26 09:28 24.09601 61.98916 40811 ft 526 kts 85°
2026-04-26 09:28 24.09801 62.06923 40813 ft 526 kts 86°
2026-04-26 09:29 24.09996 62.14923 40812 ft 526 kts 86°
2026-04-26 09:29 24.10188 62.22916 40815 ft 526 kts 86°
2026-04-26 09:30 24.10375 62.30922 40808 ft 526 kts 86°
2026-04-26 09:30 24.10558 62.38921 40810 ft 526 kts 86°
2026-04-26 09:31 24.10735 62.46873 40813 ft 526 kts 86°
2026-04-26 09:31 24.10910 62.54878 40813 ft 526 kts 86°
2026-04-26 09:32 24.11081 62.62882 40811 ft 526 kts 86°
2026-04-26 09:32 24.11247 62.70894 40812 ft 526 kts 86°
2026-04-26 09:33 24.11409 62.78907 40813 ft 526 kts 86°
2026-04-26 09:33 24.11568 62.86922 40813 ft 526 kts 86°
2026-04-26 09:34 24.11721 62.94883 40808 ft 526 kts 86°
2026-04-26 09:34 24.11870 63.02886 40812 ft 526 kts 86°
2026-04-26 09:35 24.12016 63.10900 40810 ft 526 kts 86°
2026-04-26 09:35 24.12157 63.18912 40809 ft 526 kts 87°
2026-04-26 09:36 24.12295 63.26921 40806 ft 526 kts 87°
2026-04-26 09:36 24.12428 63.34935 40807 ft 526 kts 87°
2026-04-26 09:37 24.12557 63.42963 40807 ft 527 kts 87°
2026-04-26 09:37 24.12682 63.50973 40816 ft 527 kts 87°
2026-04-26 09:38 24.12802 63.58994 40808 ft 527 kts 87°
2026-04-26 09:38 24.12918 63.66969 40809 ft 527 kts 87°
2026-04-26 09:39 24.13030 63.74988 40806 ft 527 kts 87°
2026-04-26 09:39 24.13139 63.83021 40815 ft 527 kts 87°
2026-04-26 09:40 24.13242 63.91038 40816 ft 527 kts 87°
2026-04-26 09:40 24.13342 63.99061 40816 ft 527 kts 87°
2026-04-26 09:41 24.13438 64.07080 40806 ft 527 kts 87°
2026-04-26 09:41 24.13529 64.15097 40818 ft 526 kts 87°
2026-04-26 09:42 24.13616 64.23108 40817 ft 526 kts 87°
2026-04-26 09:42 24.13699 64.31124 40802 ft 526 kts 88°
2026-04-26 09:43 24.13777 64.39087 40803 ft 526 kts 88°
2026-04-26 09:43 24.13852 64.47097 40811 ft 526 kts 88°
2026-04-26 09:44 24.13922 64.55111 40803 ft 526 kts 88°
2026-04-26 09:44 24.13989 64.63120 40817 ft 526 kts 88°
2026-04-26 09:45 24.14051 64.71137 40803 ft 526 kts 88°
2026-04-26 09:45 24.14108 64.79154 40814 ft 526 kts 88°
2026-04-26 09:46 24.14162 64.87164 40805 ft 526 kts 88°
2026-04-26 09:46 24.14212 64.95186 40804 ft 526 kts 88°
2026-04-26 09:47 24.14255 65.02786 40804 ft 527 kts 88°
2026-04-26 09:47 24.14295 65.10612 40804 ft 528 kts 88°
2026-04-26 09:48 24.14332 65.18638 40804 ft 527 kts 88°
2026-04-26 09:48 24.14365 65.26650 40805 ft 527 kts 88°
2026-04-26 09:49 24.14394 65.34673 40800 ft 527 kts 88°
2026-04-26 09:49 24.14419 65.42696 40803 ft 527 kts 88°
2026-04-26 09:50 24.14439 65.50715 40801 ft 527 kts 89°
2026-04-26 09:50 24.14456 65.58733 40801 ft 527 kts 89°
2026-04-26 09:51 24.14468 65.66704 40801 ft 527 kts 89°
2026-04-26 09:51 24.14476 65.74731 40798 ft 527 kts 89°
2026-04-26 09:52 24.14479 65.82752 40803 ft 527 kts 89°
2026-04-26 09:52 24.14477 65.94787 40799 ft 527 kts 89°
2026-04-26 09:53 24.14470 66.02800 40799 ft 527 kts 89°
2026-04-26 09:53 24.14460 66.10824 40801 ft 527 kts 89°
2026-04-26 09:54 24.14445 66.18788 40800 ft 527 kts 89°
2026-04-26 09:54 24.14425 66.26818 40797 ft 527 kts 89°
2026-04-26 09:55 24.14402 66.34853 40797 ft 527 kts 89°
2026-04-26 09:55 24.14374 66.42877 40792 ft 527 kts 89°
2026-04-26 09:56 24.14342 66.50857 40794 ft 527 kts 89°
2026-04-26 09:56 24.14306 66.58890 40793 ft 527 kts 90°
2026-04-26 09:57 24.14266 66.66915 40790 ft 527 kts 90°
2026-04-26 09:57 24.14221 66.74951 40791 ft 527 kts 90°
2026-04-26 09:58 24.14173 66.82983 40796 ft 527 kts 90°
2026-04-26 09:58 24.14120 66.91013 40796 ft 527 kts 90°
2026-04-26 09:59 24.14072 66.97686 40798 ft 527 kts 90°
2026-04-26 09:59 24.14001 67.07074 40802 ft 527 kts 90°
2026-04-26 10:00 24.13936 67.15106 40805 ft 528 kts 90°
2026-04-26 10:00 24.13866 67.23084 40811 ft 528 kts 90°
2026-04-26 10:01 24.13792 67.31118 40820 ft 528 kts 90°
2026-04-26 10:01 24.13714 67.39159 40820 ft 528 kts 90°
2026-04-26 10:02 24.13646 67.45833 40820 ft 528 kts 90°
2026-04-26 10:02 24.13545 67.55231 40820 ft 528 kts 90°
2026-04-26 10:03 24.13470 67.61906 40819 ft 528 kts 90°
2026-04-26 10:03 24.13359 67.71296 40817 ft 528 kts 90°
2026-04-26 10:04 24.13277 67.77981 40810 ft 528 kts 91°
2026-04-26 10:04 24.13174 67.86020 40806 ft 528 kts 91°
2026-04-26 10:05 24.13068 67.94054 40800 ft 528 kts 91°
2026-04-26 10:05 24.12956 68.02102 40791 ft 528 kts 91°
2026-04-26 10:06 24.12841 68.10143 40787 ft 528 kts 91°
2026-04-26 10:06 24.12721 68.18193 40776 ft 529 kts 91°
2026-04-26 10:07 24.12597 68.26239 40749 ft 528 kts 91°
2026-04-26 10:07 24.12469 68.34279 40745 ft 528 kts 91°
2026-04-26 10:08 24.12337 68.42334 40745 ft 528 kts 91°
2026-04-26 10:08 24.12200 68.50376 40738 ft 528 kts 91°
2026-04-26 10:09 24.12060 68.58371 40739 ft 528 kts 91°
2026-04-26 10:09 24.11916 68.66420 40736 ft 528 kts 91°
2026-04-26 10:10 24.11711 68.74463 40728 ft 528 kts 95°
2026-04-26 10:10 24.10235 68.82313 40731 ft 527 kts 106°
2026-04-26 10:11 24.08253 68.90043 40733 ft 527 kts 107°
2026-04-26 10:11 24.06252 68.97759 40733 ft 527 kts 107°
2026-04-26 10:12 24.04242 69.05481 40730 ft 527 kts 107°
2026-04-26 10:12 24.02230 69.13197 40732 ft 527 kts 107°
2026-04-26 10:13 24.00213 69.20910 40726 ft 527 kts 107°
2026-04-26 10:13 23.98192 69.28624 40725 ft 527 kts 107°
2026-04-26 10:14 23.96169 69.36326 40724 ft 527 kts 107°
2026-04-26 10:14 23.94154 69.43982 40722 ft 527 kts 107°
2026-04-26 10:15 23.92124 69.51678 40722 ft 527 kts 107°
2026-04-26 10:15 23.90089 69.59379 40718 ft 527 kts 107°
2026-04-26 10:16 23.88052 69.67066 40721 ft 527 kts 107°
2026-04-26 10:16 23.86011 69.74754 40722 ft 526 kts 107°
2026-04-26 10:17 23.83966 69.82439 40726 ft 526 kts 107°
2026-04-26 10:17 23.81919 69.90115 40725 ft 526 kts 107°
2026-04-26 10:18 23.79870 69.97781 40727 ft 526 kts 107°
2026-04-26 10:18 23.77830 70.05400 40728 ft 526 kts 107°
2026-04-26 10:19 23.75773 70.13063 40730 ft 525 kts 107°
2026-04-26 10:19 23.73712 70.20723 40734 ft 525 kts 107°
2026-04-26 10:20 23.72000 70.27078 40735 ft 525 kts 107°
2026-04-26 10:20 23.69584 70.36024 40738 ft 525 kts 107°
2026-04-26 10:21 23.67527 70.43620 40743 ft 525 kts 107°
2026-04-26 10:21 23.65460 70.51240 40615 ft 520 kts 107°
2026-04-26 10:22 23.64421 70.55061 39922 ft 519 kts 107°
2026-04-26 10:22 23.63392 70.58844 39147 ft 521 kts 107°
2026-04-26 10:22 23.62361 70.62631 38408 ft 521 kts 106°
2026-04-26 10:22 23.61327 70.66423 37529 ft 520 kts 106°
2026-04-26 10:23 23.60312 70.70144 36686 ft 519 kts 106°
2026-04-26 10:23 23.59279 70.73923 35887 ft 519 kts 106°
2026-04-26 10:23 23.58246 70.77700 35163 ft 519 kts 106°
2026-04-26 10:23 23.57216 70.81461 34439 ft 517 kts 105°
2026-04-26 10:24 23.56190 70.85208 33678 ft 515 kts 105°
2026-04-26 10:24 23.55166 70.88943 32666 ft 514 kts 105°
2026-04-26 10:24 23.54142 70.92675 31619 ft 515 kts 105°
2026-04-26 10:24 23.53112 70.96428 30765 ft 515 kts 105°
2026-04-26 10:25 23.52092 71.00135 30161 ft 508 kts 105°
2026-04-26 10:25 23.50966 71.03760 29539 ft 502 kts 110°
2026-04-26 10:25 23.49689 71.07279 28885 ft 496 kts 110°
2026-04-26 10:25 23.48420 71.10752 28279 ft 490 kts 110°
2026-04-26 10:26 23.47182 71.14187 27680 ft 484 kts 110°
2026-04-26 10:26 23.45967 71.17592 27079 ft 479 kts 110°
2026-04-26 10:26 23.44789 71.20914 26493 ft 474 kts 110°
2026-04-26 10:26 23.43610 71.24244 25904 ft 469 kts 110°
2026-04-26 10:27 23.42441 71.27548 25317 ft 465 kts 110°
2026-04-26 10:27 23.41287 71.30816 24734 ft 461 kts 110°
2026-04-26 10:27 23.40142 71.34057 24139 ft 457 kts 110°
2026-04-26 10:27 23.39004 71.37280 23554 ft 454 kts 110°
2026-04-26 10:28 23.37874 71.40472 22912 ft 450 kts 110°
2026-04-26 10:28 23.36756 71.43633 22289 ft 445 kts 110°
2026-04-26 10:28 23.35648 71.46761 21693 ft 440 kts 110°
2026-04-26 10:28 23.34553 71.49852 21100 ft 436 kts 110°
2026-04-26 10:29 23.33466 71.52918 20514 ft 432 kts 110°
2026-04-26 10:29 23.32388 71.55955 19906 ft 429 kts 110°
2026-04-26 10:29 23.31318 71.58971 19306 ft 425 kts 110°
2026-04-26 10:29 23.30256 71.61961 18701 ft 422 kts 110°
2026-04-26 10:30 23.29199 71.64930 18097 ft 419 kts 110°
2026-04-26 10:30 23.28149 71.67879 17425 ft 416 kts 110°
2026-04-26 10:30 23.27110 71.70798 16815 ft 412 kts 111°
2026-04-26 10:30 23.26161 71.73698 16534 ft 399 kts 105°
2026-04-26 10:31 23.25675 71.76556 16521 ft 381 kts 94°
2026-04-26 10:31 23.25565 71.79408 15981 ft 377 kts 90°
2026-04-26 10:31 23.25657 71.82299 15260 ft 390 kts 86°
2026-04-26 10:31 23.25878 71.85286 14854 ft 400 kts 84°
2026-04-26 10:32 23.26153 71.88302 14737 ft 402 kts 84°
2026-04-26 10:32 23.26436 71.91330 14726 ft 401 kts 84°
2026-04-26 10:32 23.26704 71.94314 14376 ft 393 kts 84°
2026-04-26 10:32 23.26958 71.97290 13469 ft 398 kts 85°
2026-04-26 10:33 23.27204 72.00314 12446 ft 404 kts 85°
2026-04-26 10:33 23.27438 72.03324 11829 ft 385 kts 85°
2026-04-26 10:33 23.27651 72.06110 11344 ft 355 kts 85°
2026-04-26 10:33 23.27847 72.08689 10921 ft 330 kts 85°
2026-04-26 10:34 23.28029 72.11081 10664 ft 307 kts 85°
2026-04-26 10:34 23.28204 72.13361 9998 ft 301 kts 85°
2026-04-26 10:34 23.28382 72.15630 9117 ft 302 kts 85°
2026-04-26 10:34 23.28562 72.17900 8336 ft 300 kts 85°
2026-04-26 10:35 23.28738 72.20160 7883 ft 300 kts 85°
2026-04-26 10:35 23.28913 72.22428 7728 ft 301 kts 85°
2026-04-26 10:35 23.29085 72.24670 7545 ft 291 kts 85°
2026-04-26 10:35 23.29249 72.26816 6813 ft 288 kts 85°
2026-04-26 10:36 23.29412 72.29002 5932 ft 292 kts 85°
2026-04-26 10:36 23.29557 72.31030 5193 ft 291 kts 85°
2026-04-26 10:36 23.29714 72.33251 4512 ft 285 kts 85°
2026-04-26 10:36 23.29861 72.35350 4113 ft 269 kts 85°
2026-04-26 10:37 23.29997 72.37286 4002 ft 243 kts 85°
2026-04-26 10:37 23.30121 72.39025 3986 ft 220 kts 85°
2026-04-26 10:37 23.30241 72.40668 3999 ft 217 kts 85°
2026-04-26 10:37 23.30208 72.42294 3993 ft 212 kts 98°
2026-04-26 10:38 23.29989 72.43861 4020 ft 207 kts 100°
2026-04-26 10:38 23.29744 72.45406 3997 ft 209 kts 101°
2026-04-26 10:38 23.29494 72.46965 3981 ft 209 kts 101°
2026-04-26 10:38 23.29244 72.48528 3998 ft 210 kts 101°
2026-04-26 10:39 23.28987 72.50154 3964 ft 230 kts 101°
2026-04-26 10:39 23.28711 72.51867 3614 ft 234 kts 101°
2026-04-26 10:39 23.28437 72.53562 3456 ft 219 kts 101°
2026-04-26 10:39 23.28180 72.55165 3148 ft 209 kts 100°
2026-04-26 10:40 23.27939 72.56676 2818 ft 202 kts 101°
2026-04-26 10:40 23.27690 72.58188 2344 ft 203 kts 101°
2026-04-26 10:40 23.27442 72.59699 2056 ft 203 kts 101°
2026-04-26 10:40 23.27193 72.61212 1987 ft 204 kts 100°
2026-04-26 10:41 23.26939 72.62733 1982 ft 203 kts 101°
2026-04-26 10:41 23.26700 72.64244 1987 ft 203 kts 101°
2026-04-26 10:41 23.26464 72.65760 1991 ft 203 kts 101°
2026-04-26 10:41 23.26231 72.67273 1992 ft 204 kts 101°
2026-04-26 10:42 23.26013 72.68754 1992 ft 194 kts 100°
2026-04-26 10:42 23.25873 72.69707 1995 ft 192 kts 101°
2026-04-26 10:42 23.25595 72.71616 1986 ft 188 kts 100°
2026-04-26 10:42 23.25339 72.72991 1977 ft 183 kts 111°
2026-04-26 10:43 23.24554 72.74013 1987 ft 175 kts 153°
2026-04-26 10:43 23.23409 72.74309 1996 ft 168 kts 182°
2026-04-26 10:43 23.22245 72.74239 2001 ft 168 kts 189°
2026-04-26 10:43 23.21082 72.74095 1988 ft 168 kts 190°
2026-04-26 10:44 23.19928 72.73936 1993 ft 167 kts 190°
2026-04-26 10:44 23.18782 72.73765 1993 ft 165 kts 191°
2026-04-26 10:44 23.17692 72.73597 1984 ft 148 kts 192°
2026-04-26 10:44 23.16785 72.73211 1999 ft 136 kts 216°
2026-04-26 10:45 23.16109 72.72507 2000 ft 134 kts 230°
2026-04-26 10:45 23.15489 72.71753 1909 ft 136 kts 229°
2026-04-26 10:45 23.14806 72.71035 1734 ft 137 kts 225°
2026-04-26 10:45 23.14129 72.70318 1569 ft 135 kts 227°
2026-04-26 10:46 23.13463 72.69597 1381 ft 135 kts 227°
2026-04-26 10:46 23.12794 72.68877 1210 ft 135 kts 226°
2026-04-26 10:46 23.12118 72.68156 1075 ft 137 kts 228°
2026-04-26 10:46 23.11442 72.67428 942 ft 136 kts 227°
2026-04-26 10:47 23.10759 72.66693 744 ft 137 kts 225°
2026-04-26 10:47 23.10034 72.65914 600 ft 167 kts 227°
2026-04-26 10:47 23.09108 72.64913 770 ft 201 kts 227°
2026-04-26 10:47 23.08440 72.64203 968 ft 198 kts 226°
2026-04-26 10:48 23.07218 72.62889 981 ft 170 kts 226°
2026-04-26 10:48 23.06412 72.62008 1009 ft 175 kts 226°
2026-04-26 10:48 23.05490 72.60996 1146 ft 200 kts 227°
2026-04-26 10:48 23.04474 72.59896 1683 ft 209 kts 227°
2026-04-26 10:49 23.03464 72.58800 2601 ft 200 kts 226°
2026-04-26 10:49 23.02813 72.58069 3158 ft 199 kts 230°
2026-04-26 10:49 23.02210 72.56251 3817 ft 200 kts 273°
2026-04-26 10:49 23.02679 72.54841 3972 ft 203 kts 307°
2026-04-26 10:50 23.03381 72.54167 3993 ft 205 kts 329°
2026-04-26 10:50 23.04763 72.53817 4029 ft 207 kts
2026-04-26 10:50 23.06209 72.54037 4013 ft 212 kts
2026-04-26 10:50 23.07656 72.54374 3992 ft 213 kts 10°
2026-04-26 10:51 23.09136 72.54739 3993 ft 222 kts 10°
2026-04-26 10:51 23.12171 72.55495 3997 ft 224 kts 10°
2026-04-26 10:51 23.13692 72.55874 3995 ft 224 kts 11°
2026-04-26 10:52 23.15213 72.56270 3993 ft 226 kts 13°
2026-04-26 10:52 23.16578 72.57116 3997 ft 229 kts 39°
2026-04-26 10:52 23.17702 72.58314 3970 ft 221 kts 45°
2026-04-26 10:52 23.18726 72.59503 3866 ft 211 kts 45°
2026-04-26 10:53 23.19711 72.60656 3642 ft 207 kts 45°
2026-04-26 10:53 23.20688 72.61797 3367 ft 205 kts 45°
2026-04-26 10:53 23.21656 72.62929 3102 ft 204 kts 45°
2026-04-26 10:54 23.23567 72.65168 2533 ft 202 kts 45°
2026-04-26 10:54 23.24295 72.66474 2169 ft 206 kts 74°
2026-04-26 10:54 23.24225 72.67990 1999 ft 203 kts 112°
2026-04-26 10:54 23.23403 72.69210 1994 ft 199 kts 140°
2026-04-26 10:55 23.22358 72.70157 1975 ft 190 kts 144°
2026-04-26 10:55 23.21361 72.70999 1987 ft 176 kts 145°
2026-04-26 10:55 23.20393 72.71803 1990 ft 175 kts 145°
2026-04-26 10:55 23.19407 72.72600 1988 ft 176 kts 147°
2026-04-26 10:56 23.18272 72.73032 1994 ft 173 kts 178°
2026-04-26 10:56 23.17088 72.72952 1983 ft 170 kts 198°
2026-04-26 10:56 23.16041 72.72416 1978 ft 161 kts 216°
2026-04-26 10:56 23.15285 72.71586 1867 ft 151 kts 233°
2026-04-26 10:57 23.14613 72.70763 1682 ft 141 kts 226°
2026-04-26 10:57 23.13901 72.70079 1509 ft 134 kts 226°
2026-04-26 10:57 23.13243 72.69361 1345 ft 136 kts 227°
2026-04-26 10:57 23.12570 72.68632 1175 ft 137 kts 225°
2026-04-26 10:58 23.11887 72.67906 1016 ft 139 kts 227°
2026-04-26 10:58 23.11207 72.67176 827 ft 140 kts 227°
2026-04-26 10:58 23.10534 72.66450 657 ft 139 kts 225°
2026-04-26 10:58 23.09852 72.65729 471 ft 133 kts 228°
2026-04-26 10:59 23.09201 72.65009 309 ft 133 kts 224°
2026-04-26 10:59 23.08530 72.64300 219 ft 135 kts 226°
2026-04-26 10:59 23.07912 72.63649 208 ft 102 kts 224°
2026-04-26 10:59 23.07581 72.63293 216 ft 46 kts 225°
2026-04-26 11:00 23.07471 72.63111 211 ft 20 kts 252°
2026-04-26 11:00 23.07432 72.62984 208 ft 12 kts 251°
2026-04-26 11:00 23.07431 72.62979 211 ft 0 kts 251°
2026-04-26 11:00 23.07430 72.62978 197 ft 1 kts 251°
2026-04-26 11:01 23.07417 72.62936 204 ft 9 kts 251°
2026-04-26 11:01 23.07393 72.62865 199 ft 11 kts 244°
2026-04-26 11:01 23.07341 72.62789 201 ft 14 kts 225°
2026-04-26 11:01 23.07264 72.62708 205 ft 16 kts 223°
2026-04-26 11:02 23.07200 72.62643 207 ft 10 kts 223°
2026-04-26 11:02 23.07177 72.62616 203 ft 0 kts 229°
2026-04-26 11:02 23.07174 72.62612 208 ft 2 kts 234°
2026-04-26 11:02 23.07171 72.62586 209 ft 2 kts 291°
2026-04-26 11:03 23.07210 72.62541 207 ft 10 kts 316°
2026-04-26 11:03 23.07267 72.62479 194 ft 9 kts 316°
2026-04-26 11:03 23.07308 72.62437 205 ft 7 kts 316°
2026-04-26 11:03 23.07325 72.62419 195 ft 0 kts 316°
2026-04-26 11:04 23.07329 72.62415 195 ft 2 kts 316°
2026-04-26 11:04 23.07335 72.62408 205 ft 0 kts 316°